Tracking 29892 objects as of 21-Nov-2024
HD Live streaming from Space Station
objects crossing your sky now

STARLINK-2286

Track STARLINK-2286 now!
10-day predictions
STARLINK-2286 is classified as:


NORAD ID: 48033
Int'l Code: 2021-024BJ
Perigee: 553.4 km
Apogee: 555.2 km
Inclination: 53.1 °
Period: 95.6 minutes
Semi major axis: 6925 km
RCS: Unknown
Launch date: March 24, 2021
Source: United States (US)
Launch site: AIR FORCE EASTERN TEST RANGE (AFETR)
Your satellite tracking list
Your tracking list is empty




NASA's NSSDC Master Catalog

Two Line Element Set (TLE):
1 48033U 21024BJ  24325.90648994  .00009240  00000-0  63826-3 0  9995
2 48033  53.0556 298.5105 0001313  95.8028 264.3110 15.06405651202693
Source of the keplerian elements: AFSPC